Location: Dimsdale
(55.1333°N, 118.9833°W)
Time: 10:24:23
(UTC+00:00)

SO-50 - Pass Details

Date: 07 December 2023
Orbit: 608 x 660 km, 64.6° (Epoch: 02 March)

Event Time Altitude Azimuth Distance (km) Brightness Sun altitude
Exits shadow 12:09:44 25° 44° (NE) 1,309 ? -32.2°
Drops below altitude 10° 12:11:41 10° 47° (NE) 2,043 ? -32.0°
Sets 12:13:58 0° 49° (NE) 2,946 ? -31.6°
